Dewpoint
55 55 55 56 56 56 56 56 57 57 57 57 57 58 58 58 58 55 37 39 47 71 73 65 62 64 66 62 63 64 54 45 39 38 36 42 43 48 54 55 56 57 56 58 65
55 55 55 56 57 57 56 56 57 57 57 57 57 57 58 58 52 41 53 65 70 73 64 57 58 62 61 61 61 60 53 46 47 44 40 37 39 36 52 54 56 57 59 63 66
55 56 56 56 56 57 57 57 57 57 56 56 57 57 58 57 30 7 69 70 72 65 59 54 57 59 58 57 59 58 51 51 49 47 45 35 27 29 46 51 53 55 58 63 65
56 56 56 56 56 57 57 57 57 56 56 56 56 57 58 51 12 41 71 71 71 55 51 51 55 54 51 50 55 54 55 53 49 42 33 23 27 39 45 44 52 56 59 62 63
57 57 56 57 57 57 57 57 56 56 56 56 56 56 45 13 12 62 73 72 65 54 47 50 50 49 44 49 51 53 50 45 46 39 26 24 28 34 45 45 52 57 61 61 62
57 57 56 56 56 56 56 56 55 55 56 56 56 56 35 20 23 63 66 64 59 55 47 41 39 44 35 35 38 43 44 42 38 25 26 26 35 44 43 45 51 59 60 60 61
57 57 56 56 56 56 56 55 55 55 56 57 56 51 31 19 48 58 56 54 54 52 45 44 42 37 46 42 40 42 38 37 31 27 27 32 26 38 42 51 50 57 59 60 61
57 57 56 56 56 56 55 54 54 55 58 58 56 49 24 20 28 24 31 27 39 47 37 29 38 36 33 32 33 32 24 30 27 24 22 24 27 26 34 49 48 53 56 59 62
57 57 56 56 56 55 54 53 54 55 57 58 49 30 19 36 23 27 27 22 28 42 47 43 40 35 41 30 24 29 28 31 29 22 21 21 21 22 24 24 31 48 56 57 61
57 57 56 56 55 54 53 53 51 56 56 54 47 32 24 16 21 23 26 24 23 40 43 41 40 35 35 32 21 20 25 26 28 26 21 20 22 22 20 22 27 44 56 56 58
57 57 56 55 54 52 49 27 22 22 25 21 20 20 17 19 21 20 22 22 23 31 22 38 29 26 26 31 27 24 29 29 26 26 24 26 24 22 24 22 23 44 55 56 57
57 57 56 55 53 52 37 23 23 25 23 25 24 23 23 22 18 19 22 19 20 15 32 31 25 30 33 29 33 30 29 30 27 22 21 21 25 26 25 24 24 37 52 56 56
57 56 55 54 52 42 34 26 30 30 23 19 19 18 17 18 18 18 20 20 22 20 24 18 18 33 34 32 34 33 32 31 29 29 26 26 22 24 23 24 25 31 47 53 56
56 56 55 52 45 39 26 31 35 32 19 16 18 18 17 17 17 19 20 20 20 19 24 22 23 28 31 34 35 29 33 32 30 30 26 21 18 25 24 25 24 23 35 50 55
55 55 54 51 42 38 30 35 35 27 8 18 19 21 19 17 18 19 19 19 18 18 20 15 22 25 26 27 33 33 34 33 31 29 23 24 15 20 27 24 24 22 24 31 49
54 54 52 45 45 42 37 36 27 16 7 18 20 18 18 17 15 18 17 19 20 18 19 17 18 25 24 28 32 28 26 23 20 19 20 22 17 17 20 27 24 25 25 27 29
53 51 49 45 32 39 36 26 17 8 19 19 18 19 18 16 15 17 22 18 15 17 18 16 14 14 17 17 23 28 23 18 17 16 16 21 17 22 24 25 27 25 26 28 32
51 49 46 44 42 40 30 22 16 16 18 20 20 18 15 15 13 16 19 18 19 15 17 14 11 15 18 17 18 23 21 17 16 15 16 22 17 19 28 26 27 27 27 31 41
47 36 33 34 39 40 24 20 20 20 20 24 22 15 15 16 15 15 17 18 23 26 26 20 14 15 17 18 18 20 19 17 21 20 14 15 21 24 28 27 28 40 55 55 50
36 32 30 38 41 29 21 23 20 19 19 21 23 18 18 18 15 17 17 18 28 30 30 27 24 21 20 17 18 23 20 15 20 23 21 18 22 20 29 29 36 54 62 62 60
33 27 34 35 38 34 26 25 24 26 24 25 22 20 20 18 16 17 18 23 28 30 32 30 28 27 27 23 21 18 17 19 19 22 17 18 18 32 33 42 51 62 65 64 64
31 31 32 33 34 32 28 28 32 28 32 29 27 25 22 17 23 19 22 28 30 33 30 32 29 28 25 29 28 23 23 21 20 27 20 21 19 32 47 57 63 63 65 65 66
32 28 31 34 30 27 28 26 28 30 31 34 34 31 29 24 28 24 30 31 33 34 34 35 31 24 24 26 30 29 33 34 40 31 26 18 19 36 54 60 61 63 64 65 65
30 28 31 32 30 28 27 26 27 31 33 37 37 35 35 30 32 33 31 32 33 33 52 41 34 31 23 28 29 33 34 42 45 31 22 20 24 29 53 58 60 61 64 66 67
31 32 30 27 27 26 27 26 28 29 31 36 36 31 34 33 32 32 32 32 31 43 37 36 35 33 31 30 30 31 30 38 44 44 36 22 25 50 56 57 59 60 62 63 66
34 32 32 30 29 25 28 29 26 26 28 33 32 32 36 34 32 31 34 35 33 33 36 38 33 35 31 29 28 27 36 39 41 45 45 43 40 55 57 57 59 60 61 62 63
38 36 33 32 25 23 21 26 25 25 29 33 34 35 33 34 37 38 38 40 40 39 38 39 36 34 28 29 28 31 40 42 43 46 49 47 53 54 55 54 56 59 60 61 62
Lifted_Index
19 19 19 18 18 18 18 18 17 16 16 15 15 15 14 14 12 10 9 9 7 3 1 1 1 -0 -2 -2 -4 -4 -3 -1 0 1 2 2 1 -1 -3 -4 -4 -4 -4 -4 -4
18 18 18 18 18 18 18 18 17 17 16 15 14 14 14 13 11 9 7 7 5 2 2 2 2 0 -1 -2 -3 -4 -3 -2 -0 1 2 2 2 0 -2 -4 -4 -4 -4 -4 -5
17 17 17 16 16 16 17 17 17 16 16 15 14 14 13 12 10 7 5 3 2 2 3 4 3 1 -0 -1 -2 -3 -3 -2 -1 0 1 2 2 1 -1 -3 -4 -4 -4 -5 -5
16 16 15 15 16 16 16 16 16 15 15 15 15 14 13 10 8 5 3 1 2 3 5 4 3 2 1 1 -0 -1 -2 -2 -1 0 1 2 2 1 -1 -2 -3 -4 -5 -5 -5
15 15 15 15 15 16 16 16 16 16 15 15 15 14 12 10 8 5 2 1 2 4 5 5 4 4 4 3 2 0 -0 -1 -0 1 1 2 2 1 -1 -2 -3 -4 -5 -5 -5
15 15 15 15 15 16 16 16 16 16 16 15 15 14 11 9 8 6 3 3 4 5 6 6 6 6 6 5 4 2 1 1 1 1 1 2 2 1 -1 -1 -2 -4 -4 -4 -5
15 15 15 15 15 15 16 17 17 17 16 15 15 14 11 10 10 8 7 7 7 7 8 8 8 8 7 6 5 4 3 2 2 2 2 2 1 1 -0 -1 -2 -3 -4 -4 -4
15 15 15 15 15 16 16 17 17 16 15 15 15 13 11 12 12 12 11 11 10 10 10 10 9 9 8 6 5 4 4 3 2 2 2 2 1 1 1 -0 -1 -3 -4 -4 -4
15 15 16 16 16 16 17 17 17 16 15 14 14 12 11 12 13 13 13 13 12 11 10 9 9 9 8 7 6 4 4 3 2 2 3 2 2 2 1 1 0 -1 -3 -4 -4
15 15 16 16 16 17 17 17 15 14 14 13 13 12 12 12 13 13 13 13 12 11 9 8 8 8 7 6 5 4 3 3 3 3 3 3 3 2 2 1 1 -0 -3 -3 -4
15 15 16 16 16 17 17 16 14 13 13 12 12 12 12 12 12 13 13 12 11 10 9 8 8 7 7 6 5 3 3 2 2 3 3 4 4 3 2 1 1 -0 -2 -3 -3
15 15 16 15 16 17 17 16 15 14 12 12 12 12 12 12 12 12 12 11 10 9 8 8 7 7 6 5 4 3 2 2 2 2 3 4 4 3 2 1 1 0 -2 -3 -3
15 15 15 15 16 17 17 16 17 14 11 11 12 12 12 12 11 11 11 11 9 8 8 7 7 6 5 4 3 2 2 1 1 2 2 3 3 3 2 1 1 0 -1 -2 -3
15 15 15 15 16 16 17 17 17 14 9 9 11 12 12 12 11 11 11 10 8 8 7 7 7 6 5 3 2 1 1 0 0 1 1 2 2 3 2 1 1 0 -0 -1 -2
14 14 15 15 16 17 17 17 16 11 7 8 11 11 11 11 11 11 11 10 8 7 7 6 6 5 4 2 1 0 0 0 0 0 1 2 2 2 2 1 1 0 0 -0 -1
14 14 15 15 16 17 17 16 12 7 5 7 10 10 10 10 10 10 10 9 8 6 5 5 5 4 3 1 0 0 1 1 1 0 1 1 2 2 2 1 1 1 1 1 0
14 14 15 15 16 17 16 13 8 5 6 8 9 9 9 9 9 9 8 8 7 5 4 3 3 3 2 1 0 1 1 1 0 -0 0 1 1 1 1 1 1 1 1 1 1
14 14 14 15 15 15 14 10 6 6 7 9 9 9 8 8 8 8 7 7 6 5 4 3 2 2 1 1 0 0 -0 -0 -0 -0 -0 0 1 1 1 1 1 1 0 0 1
14 14 14 14 14 14 12 8 6 7 8 8 8 8 8 8 7 7 6 5 5 4 3 2 2 1 1 1 0 0 -0 -0 -0 -0 -0 0 1 1 0 1 0 -1 -2 -2 -1
13 13 13 13 12 12 10 8 8 8 8 8 8 8 7 7 7 6 5 4 3 3 2 2 1 1 1 1 0 0 -0 -0 0 0 0 1 1 1 1 0 -1 -3 -5 -4 -3
13 13 13 12 12 11 9 9 8 8 7 7 7 8 8 7 6 6 4 3 2 2 2 1 1 1 1 1 0 0 -0 -0 0 0 0 0 1 1 0 -1 -3 -6 -6 -6 -5
12 12 12 12 11 10 9 9 8 7 7 7 7 7 7 7 6 5 4 3 2 1 1 1 1 0 0 0 0 0 -0 -0 -0 0 0 0 1 1 -1 -4 -6 -7 -7 -7 -6
11 11 12 11 10 10 9 8 7 7 6 6 6 6 6 6 6 5 3 3 2 1 1 1 0 0 0 0 0 -0 -0 -1 -1 0 1 1 1 0 -3 -6 -6 -7 -7 -7 -7
10 10 11 11 10 10 9 8 7 6 6 6 6 6 5 5 5 4 3 3 2 2 1 0 0 0 0 1 1 0 -1 -2 -2 -1 0 1 1 -1 -3 -5 -6 -6 -7 -7 -7
10 10 10 10 10 10 9 8 7 6 6 5 5 5 5 5 5 4 4 3 2 2 1 1 0 0 1 1 1 0 -1 -2 -3 -3 -1 -0 -0 -2 -3 -4 -5 -6 -6 -7 -7
10 10 10 10 10 9 9 8 7 6 6 5 5 5 5 5 5 4 4 3 2 2 1 1 1 1 1 1 1 0 -1 -2 -2 -3 -3 -2 -2 -3 -4 -4 -5 -6 -6 -6 -6
10 10 10 10 10 9 9 8 7 6 6 5 5 5 5 5 5 5 4 3 2 2 1 1 1 1 1 1 1 -0 -1 -1 -2 -3 -3 -4 -3 -4 -4 -4 -5 -5 -5 -5 -5